DECAYED

STARLINK-6161, 56380 (Decayed)

Orbit data source: Space-Track

STARLINK-6161, 56380 was a payload satellite owned by SpaceX/Seattle (US) in LEO that was launched on Thu, 04 May 2023 UTC via an FALCON 9 launch vehicle from the Air Force Eastern Test Range (AFETR). Payload-class satellites include a variety of spacecraft equipped with specific instruments for various scientific and technological missions. These include communications satellites like Starlink; space stations such as the ISS; scientific satellites like the Hubble; Earth observation satellites from companies like Planet Labs, Umbra, and HawkEye 360; GPS; miniature CubeSats for education and research; and military/defense satellites.

Not visible in the next 10 days
Identifier
56380, 2023-061G
Orbit
Decayed
Country
Flag of USUS
Related business
Manufacturer
SpaceX/Seattle
Mission
Decayed Commercial Communications
Bus & Motor
STARLINK, Unknown motor
Mass
305 kg wet, ~290 kg dry
Launch date (UTC)
2023-05-04 (3 years ago)
Launch vehicle
FALCON 9
Launch site
Air Force Eastern Test Range (AFETR)
Object type
Payload
Rocket body
Debris
Shape & HBR
Box + 1 Pan, 10.1 m
Radar Cross Section
11.087 m², Large (>1 m²)

Expand to show TLE details & history
Last TLE update: 11 months ago

TLE from 11 months ago
0 STARLINK-6161
1 56380U 23061G   25208.67921168  .15915742  94655-5  32506-3 0  9998
2 56380  42.9935 308.5904 0000446 246.1644 263.6861 16.47265843123550
Epoch: 2025-07-27T16:18Z
TLE epoch observation values (Epoch: 2025-07-27T16:18:03.889Z)
Latitude
20.098°
Longitude
-84.49153°
Altitude
145.9 km
Speed
7.822 km/s
True Right ascension
07h 02m 29s
True Declination
19° 58' 37"
Sunlit
Object was in daylight at epoch
Visualization orbit readout
Latitude
Unknown
Longitude
Unknown
Altitude
Unknown
Speed
Unknown
Apparent Right ascension
Unknown
Apparent Declination
Unknown
Sunlit
N/A
Visualization observer readout
Local Sidereal Time
21:33:59
Azimuth
Unknown
Elevation
Unknown
Doppler factor
Unknown
Orbital elements
Apogee altitude
148.883 km
Perigee altitude
148.301 km
Semi-major axis
6,526.729 km
Eccentricity
0.00004
Inclination
42.9935°
RAAN
308.5904°
Arg. of periapsis
246.1644°
True anomaly
263.68102°
Mean anomaly
263.6861°
Eccentric anomaly
263.68356°
Mean motion
4.11623 °/min
Orbital period
87.46 mins
BSTAR
0.00032506
Loading maneuver chart data...
Computing Atmospheric mass density...
Loading historical data...
Loading historical data...
Loading historical data...
Loading historical data...
Loading historical data...
Loading historical data...
Loading historical data...

Documentation

Showing up to 5 results
|